RH
53 50 46 40 36 35 34 35 41 45 44 42 44 44 44 47 47 46 45 51 66 78 86 92 94 96 99 95 86 83 83 82 85 90 93 95 91 86 83 78 77 77 77 78 79 78 76 73 73 75 76 77 77 75 74 72 71 70 67 64 60 58 61 61 59 59 58 55 53 51 50 52 52 54 61 66 69 68 68 69 68 70 71 71 72
51 54 52 46 44 41 40 42 46 50 49 47 49 48 47 46 46 49 49 49 55 64 76 86 90 94 95 92 89 89 89 87 85 83 84 91 93 87 82 78 77 75 75 77 78 78 78 76 75 75 76 76 76 74 73 72 70 69 69 68 63 60 61 60 59 60 60 60 59 58 57 55 53 55 59 63 67 68 69 70 70 70 70 70 71
52 58 57 53 52 49 46 46 47 49 50 51 54 51 49 49 49 51 52 51 52 56 67 74 80 88 91 93 95 95 96 94 89 84 83 89 94 88 80 77 76 74 74 77 78 77 78 76 75 76 76 75 75 74 73 72 70 69 69 69 66 62 60 60 59 59 60 60 61 65 69 66 63 63 65 68 71 71 70 71 72 72 71 71 72
56 59 59 55 54 52 49 46 44 44 46 48 51 50 49 50 52 53 52 53 53 55 61 64 71 82 88 94 98 100 101 94 88 88 86 87 92 92 85 78 76 75 73 75 77 76 77 77 77 78 76 74 74 73 73 72 71 71 70 69 67 65 64 62 60 60 59 62 66 70 75 76 73 71 70 70 73 74 73 71 71 72 73 74 75
59 60 60 57 53 53 49 46 44 44 45 45 45 46 47 49 52 52 50 50 52 53 57 62 70 78 84 94 100 100 100 96 95 97 95 93 92 92 90 84 81 79 75 75 76 76 79 80 81 82 79 75 74 73 73 73 72 72 71 70 68 65 66 65 63 62 60 61 64 67 74 79 75 72 71 69 68 71 73 72 70 70 71 74 77
59 59 59 56 52 51 48 46 45 44 44 44 43 44 45 48 51 52 51 49 50 50 50 58 71 81 87 96 100 100 100 98 98 99 99 97 92 89 89 84 82 81 78 77 78 79 82 83 85 86 83 79 76 74 74 75 75 74 73 72 70 66 66 68 67 64 62 62 61 58 61 69 71 72 77 78 71 66 67 70 70 67 67 71 75
57 57 57 55 52 51 50 47 45 44 43 42 42 43 43 45 47 49 49 48 49 49 48 50 64 79 89 95 98 99 101 98 97 98 98 97 95 93 89 81 79 83 83 80 79 81 82 83 86 88 86 83 79 76 75 76 77 76 76 75 73 70 69 71 70 67 66 66 66 61 55 56 61 68 75 79 80 75 67 65 67 66 68 70 72
57 57 57 56 53 52 49 46 45 44 44 43 42 42 42 43 44 45 46 46 47 49 50 51 58 70 82 93 97 95 97 99 98 100 100 98 99 98 91 84 81 85 86 82 80 80 79 80 86 88 86 83 80 78 75 76 78 77 78 78 77 75 72 72 71 71 71 69 68 67 62 58 59 64 64 64 76 83 77 71 68 66 68 70 71
55 57 57 56 52 48 44 43 46 45 43 42 41 41 42 44 44 44 44 45 46 47 50 54 58 65 76 89 97 93 91 93 96 99 100 100 100 98 96 93 88 87 86 81 80 80 77 79 86 89 85 80 79 80 78 76 77 78 79 80 81 78 74 73 73 72 72 70 69 69 68 67 66 67 65 62 68 76 79 81 77 72 72 71 68
54 56 56 53 47 43 40 41 44 44 41 40 40 42 44 47 47 45 45 44 45 47 47 50 54 61 71 83 93 93 89 89 93 98 100 100 100 98 99 97 94 92 88 83 81 79 77 79 84 86 84 80 78 79 81 79 78 78 79 79 80 80 77 75 75 74 73 72 71 70 69 71 73 73 73 73 73 73 76 82 82 80 80 74 67
53 55 55 51 43 39 39 42 44 41 40 41 42 44 45 47 48 48 47 45 44 45 46 47 48 53 63 72 84 90 91 93 96 99 99 100 100 99 99 98 97 96 92 88 85 82 81 80 81 82 81 81 79 77 79 80 80 79 79 79 80 81 80 77 76 76 76 74 72 72 70 70 71 72 71 73 78 80 81 84 82 81 82 75 67
53 56 58 56 50 44 42 44 44 41 42 43 43 44 45 47 49 50 50 49 48 47 47 48 47 50 56 62 69 78 88 95 99 100 99 99 100 100 99 99 99 99 97 95 90 86 86 85 83 83 82 83 82 79 78 79 80 80 81 82 81 81 81 80 79 78 78 78 75 73 72 70 69 69 68 69 72 73 77 84 81 78 82 79 70
54 57 59 61 58 50 46 46 44 42 43 42 42 44 47 48 49 52 53 53 53 53 51 51 51 53 56 60 62 65 75 88 96 100 99 99 100 100 100 100 100 100 99 99 95 91 90 89 88 86 85 85 82 82 81 80 80 81 82 83 82 82 82 81 81 80 79 79 78 75 73 72 70 69 68 68 68 67 73 81 77 74 82 80 71
53 57 59 62 60 52 48 46 44 43 42 41 42 44 46 48 49 52 54 54 54 55 56 56 56 56 56 59 60 59 64 75 86 95 99 100 99 99 100 100 100 100 100 100 97 94 92 91 90 87 85 84 82 82 83 81 81 81 82 83 83 82 82 82 81 81 81 80 79 79 77 74 72 70 69 68 67 68 72 77 76 75 80 79 73
50 57 60 60 55 48 46 44 42 42 41 41 43 44 46 48 50 53 55 55 56 57 59 59 60 60 58 58 58 58 62 69 76 86 95 100 100 99 98 98 99 100 100 99 97 96 94 91 91 90 86 83 82 83 83 83 82 81 81 82 82 81 82 83 83 82 83 82 81 80 79 78 75 73 71 69 67 67 68 70 73 78 81 82 82
52 57 61 58 50 44 43 42 42 41 41 43 44 46 49 50 53 57 58 60 60 60 61 62 63 63 62 61 60 59 62 67 69 74 83 92 98 100 97 95 95 96 98 99 99 98 96 93 93 92 88 84 82 82 83 84 83 82 82 82 82 82 83 84 84 84 84 84 83 82 80 80 78 77 75 72 69 67 66 65 68 74 78 82 86
57 59 59 56 49 44 42 41 41 41 41 44 46 49 52 54 57 59 60 62 62 63 65 65 66 66 65 64 63 63 64 64 65 69 73 80 90 98 99 98 95 95 97 98 99 100 98 97 96 95 92 87 83 82 83 83 83 82 82 82 82 82 83 84 85 85 85 85 85 83 82 81 79 79 77 75 74 70 68 67 66 68 71 76 81
56 57 55 54 50 45 42 40 41 42 43 46 50 52 52 53 56 57 60 62 62 65 67 68 70 69 67 66 64 66 66 65 66 70 71 73 79 89 96 99 97 95 95 96 97 100 100 99 99 98 96 93 89 84 82 82 82 82 80 79 80 81 84 85 85 86 86 86 86 85 84 83 81 81 79 77 77 75 72 70 68 67 68 70 74
54 54 54 56 51 44 42 41 42 44 47 51 52 51 51 53 54 54 59 61 62 66 68 69 71 70 69 67 65 67 68 69 70 68 68 70 74 79 86 93 94 94 95 96 97 98 100 100 100 99 98 98 95 88 84 82 81 81 80 78 80 84 86 86 87 88 87 86 87 86 85 84 83 82 80 79 78 77 76 73 70 69 70 70 69
56 55 57 57 50 42 40 41 45 47 51 53 51 51 52 55 55 54 58 61 62 66 69 71 72 72 71 68 67 69 69 69 68 65 67 70 71 73 79 84 88 91 94 95 97 98 99 100 100 100 100 100 98 93 88 85 82 82 80 80 83 86 88 88 88 89 87 86 86 85 85 84 84 83 82 82 81 79 78 76 73 70 70 72 71
60 58 57 56 49 41 40 43 47 49 52 53 51 53 55 55 54 55 60 62 63 67 70 72 72 72 73 71 70 70 69 68 67 67 68 67 66 69 75 81 84 87 91 94 96 98 99 100 100 100 100 100 99 98 92 88 90 89 83 82 85 86 89 90 91 92 89 86 86 85 84 83 83 84 83 82 82 82 81 80 78 75 72 73 74
62 59 57 57 48 40 42 46 48 50 53 54 53 55 56 55 54 56 61 63 64 69 72 74 74 73 73 73 72 70 70 71 71 71 68 63 63 66 71 80 85 84 87 91 95 96 98 100 100 99 100 100 100 100 97 95 97 96 89 86 87 88 91 91 92 92 88 86 86 84 84 84 83 84 83 83 82 82 83 83 82 81 78 76 77
62 60 59 54 42 39 44 46 48 53 54 55 56 56 56 55 53 56 63 65 67 72 76 76 76 75 74 75 73 72 72 73 73 70 65 61 64 66 69 79 85 83 82 86 91 95 97 99 100 100 100 100 100 100 100 99 99 98 94 90 88 89 91 91 91 90 87 86 85 84 84 83 83 83 83 83 82 81 82 83 82 82 81 80 80
61 62 60 50 42 44 47 47 51 55 56 57 57 56 56 54 52 57 64 67 70 75 77 78 77 76 76 76 75 74 73 72 70 66 63 62 65 67 67 73 82 84 83 84 88 94 98 99 100 100 100 99 100 100 100 100 99 97 95 92 90 89 90 90 88 86 85 84 84 84 83 82 82 83 83 83 83 83 82 82 81 81 81 80 80
57 62 62 56 52 53 50 50 54 56 57 59 58 56 56 54 53 59 65 68 72 77 78 79 78 77 77 77 76 77 75 73 71 68 65 66 68 69 67 69 78 84 83 85 90 95 99 100 99 100 100 99 100 100 100 100 99 98 96 93 91 90 90 89 87 84 82 82 82 82 82 82 83 83 83 83 83 83 83 82 81 80 81 82 81
58 62 62 60 60 57 52 52 56 58 59 59 57 56 57 54 54 61 67 69 73 78 79 80 82 81 80 80 79 78 77 75 74 72 71 71 73 73 70 70 77 82 82 85 93 98 100 100 100 100 100 100 100 100 100 100 100 99 98 95 94 93 91 89 86 83 81 80 80 80 80 82 83 83 83 83 83 83 83 83 82 80 79 80 81
63 64 62 59 60 60 57 55 57 60 59 58 57 56 56 55 57 62 68 70 74 80 80 80 82 83 83 83 80 77 76 75 75 76 76 77 79 79 77 77 80 83 84 88 95 100 100 100 100 100 100 100 100 100 100 100 100 99 99 98 97 96 93 90 86 83 80 79 78 78 79 80 81 82 82 82 82 83 83 82 82 81 79 78 79
61 62 61 60 61 65 62 58 59 60 58 57 56 55 55 56 59 65 69 70 76 82 82 80 80 82 84 83 78 75 75 76 78 78 77 78 79 78 79 83 85 85 86 91 97 100 100 100 100 100 100 100 100 100 100 100 100 100 99 99 98 97 95 92 88 84 81 79 78 77 78 78 80 81 81 82 82 81 82 82 81 81 80 79 78
55 57 62 64 65 67 64 59 60 60 58 58 56 55 56 56 60 68 69 70 79 85 84 82 81 81 82 79 75 73 74 75 77 76 74 75 75 73 74 82 90 89 86 88 95 100 100 100 100 100 100 100 100 100 100 100 100 100 100 99 99 98 97 94 91 87 83 81 79 79 78 78 78 79 79 80 80 79 80 80 80 81 81 80 79
53 55 61 65 65 66 64 60 60 58 56 57 57 57 57 56 61 69 68 71 82 87 87 86 82 79 79 76 75 75 74 75 76 75 74 75 75 75 76 82 89 95 94 93 96 99 100 100 100 100 100 100 100 100 100 100 100 100 100 100 100 99 97 95 93 91 88 86 83 82 81 80 79 78 78 78 79 78 78 78 78 78 79 80 80
53 55 59 64 67 68 66 61 58 56 55 57 57 57 55 55 63 69 68 72 83 89 89 86 80 77 77 77 77 77 77 77 77 76 76 76 76 78 80 78 78 86 93 96 98 100 99 99 100 100 100 100 100 100 100 100 100 100 100 100 100 100 99 97 96 94 92 91 89 87 85 84 84 82 80 79 79 78 77 77 77 77 77 77 77
53 57 62 67 70 70 67 61 56 55 56 56 56 56 54 55 64 69 68 74 85 89 88 84 79 78 78 79 79 79 79 79 79 78 78 78 78 79 80 78 75 76 79 86 96 101 99 98 98 98 99 100 100 100 99 99 100 100 100 100 100 100 100 99 98 96 94 93 93 91 89 88 88 87 85 83 82 81 79 78 77 77 77 76 75
56 60 66 69 67 64 61 58 56 55 56 54 53 54 53 56 65 69 69 77 86 87 86 84 81 80 80 80 80 80 80 80 81 80 79 79 79 79 79 78 78 78 77 82 93 98 99 99 99 98 97 97 99 100 99 98 97 97 99 99 100 100 100 100 99 97 96 95 94 94 93 92 92 92 90 89 90 89 87 84 82 80 77 76 75
58 62 70 70 63 59 57 55 54 54 52 51 51 51 52 57 65 68 71 80 84 81 82 84 83 83 82 82 83 82 81 81 81 80 79 79 79 79 80 78 77 80 84 87 90 90 91 97 101 100 98 97 99 99 98 97 96 96 98 99 99 101 100 99 99 97 97 97 95 95 96 95 96 95 93 93 94 93 93 93 92 89 85 84 82
58 67 72 68 60 57 56 53 52 50 49 50 50 50 54 61 67 70 74 79 79 76 77 80 83 85 85 85 87 84 81 80 80 79 79 79 78 79 80 79 79 83 87 89 88 85 85 91 97 100 100 98 96 96 97 97 94 94 98 100 100 100 99 99 99 98 97 97 95 96 97 97 96 95 93 92 91 91 93 96 96 94 91 89 89
58 68 67 60 55 55 54 51 50 48 49 51 50 52 59 66 69 71 73 74 74 73 75 77 80 84 86 88 91 88 83 80 79 78 78 78 80 80 81 81 82 84 87 86 84 83 84 85 87 94 100 100 96 96 99 98 94 91 94 99 101 100 100 100 100 99 99 97 96 95 96 97 96 93 88 86 86 89 93 96 96 94 89 87 88
55 58 55 53 52 50 50 49 47 47 50 51 51 55 64 69 69 70 72 72 71 72 75 76 78 82 87 90 92 89 85 82 80 79 79 79 81 81 82 84 85 85 86 86 84 81 81 82 83 88 98 102 99 98 99 100 98 96 94 97 100 100 100 100 100 100 99 98 97 95 93 93 95 92 83 79 82 89 95 96 95 94 92 93 94
53 53 52 52 49 47 48 47 47 49 50 50 52 60 68 70 69 70 71 71 72 74 76 78 79 83 87 89 90 88 87 87 86 85 84 84 84 84 84 85 87 87 85 85 85 82 78 78 78 79 87 98 100 98 98 97 98 99 98 97 99 100 100 99 100 100 100 100 99 96 93 92 94 90 82 77 82 91 96 95 94 94 96 98 96
50 51 51 50 47 48 47 46 49 51 50 50 56 65 69 70 70 70 71 72 75 78 80 81 82 84 84 85 87 89 90 93 93 92 91 90 88 88 88 87 87 87 86 84 86 87 82 76 73 70 74 88 99 99 98 98 97 99 101 100 99 100 100 100 100 100 99 100 99 99 98 96 92 86 80 78 83 89 93 93 91 92 96 96 90
51 50 48 47 47 47 47 48 51 51 49 54 62 66 68 70 70 71 73 77 80 82 84 84 83 83 84 85 87 91 95 97 96 95 96 95 94 93 91 90 88 88 89 89 88 90 88 80 73 69 69 80 95 100 99 99 99 99 100 100 100 100 99 100 100 100 100 100 99 99 100 97 93 87 82 81 84 87 90 92 91 93 95 89 82
49 49 46 46 46 46 47 50 51 50 53 60 65 66 68 70 71 72 77 81 83 84 85 85 84 84 86 88 91 94 97 99 96 95 97 97 97 96 94 94 93 91 93 94 91 91 94 87 77 73 72 76 89 99 100 99 99 99 100 100 100 99 99 100 100 100 100 100 99 99 99 97 94 90 86 86 87 88 91 92 92 94 93 84 78
50 48 45 44 44 46 49 50 50 52 59 64 64 65 68 70 72 76 81 83 84 85 85 84 85 88 89 91 94 94 96 99 99 96 96 95 95 96 95 95 96 96 96 97 96 96 99 94 83 76 73 71 77 91 99 100 100 100 100 100 100 100 100 100 100 100 100 99 97 98 99 98 96 93 91 91 92 93 95 95 93 91 90 86 83
50 47 44 43 45 49 50 50 50 54 61 64 63 64 69 72 75 79 82 83 83 84 84 85 87 90 91 93 95 95 94 98 100 99 97 96 93 94 96 96 97 99 99 99 100 100 100 98 92 84 78 74 76 87 98 101 99 100 100 100 100 100 100 100 100 100 99 97 95 95 96 96 95 94 93 93 93 95 96 97 94 91 89 88 88
47 45 45 45 49 51 49 48 50 56 63 64 63 66 71 76 78 80 82 84 84 83 85 87 89 92 92 93 95 96 94 96 100 100 100 99 96 93 94 95 95 96 97 98 99 100 99 100 100 95 90 90 92 96 100 100 98 98 100 100 100 100 100 100 100 100 99 98 96 95 93 92 90 88 87 86 88 91 91 90 89 88 88 88 91
46 47 48 49 51 51 50 50 51 57 64 65 64 67 74 78 80 80 83 85 84 84 86 88 90 93 93 94 95 95 95 96 98 99 100 100 99 95 93 94 96 96 96 95 96 99 99 99 100 99 98 98 99 99 100 99 99 99 100 100 100 100 100 100 100 100 100 100 98 95 93 92 92 92 92 91 93 94 94 92 91 91 92 93 93
48 49 50 50 50 50 51 52 53 58 65 67 65 68 73 77 79 80 83 85 85 86 87 88 91 93 93 94 95 95 95 96 97 99 100 99 99 98 95 95 97 98 98 96 96 98 100 98 98 99 100 99 99 99 100 100 100 100 99 99 100 100 100 100 100 100 100 100 99 98 97 98 98 99 99 99 99 99 99 99 99 98 99 99 97
50 50 49 48 49 50 53 53 54 60 65 66 67 68 71 74 76 77 82 85 85 86 88 89 91 93 93 94 96 95 95 96 97 99 100 98 97 98 98 97 98 100 100 99 99 99 100 99 99 99 100 99 99 99 100 100 100 100 99 99 100 100 100 100 100 100 100 100 100 100 99 99 99 100 100 100 99 98 99 100 100 100 100 100 100
49 47 47 49 49 51 53 53 55 61 65 66 67 69 70 73 74 76 80 84 84 86 89 89 91 92 93 94 95 94 94 96 96 98 99 98 97 97 99 99 100 100 100 100 100 100 100 100 100 100 100 99 99 99 100 100 100 100 100 100 100 100 100 100 100 100 100 100 99 98 98 97 97 97 98 99 99 99 99 100 100 100 100 100 99
48 46 46 48 49 50 51 53 54 59 65 67 67 68 71 72 73 75 79 82 84 85 87 89 90 91 93 94 94 94 95 95 96 97 97 97 98 99 99 99 99 99 100 100 99 100 100 100 100 100 100 99 99 100 100 100 99 100 100 100 100 100 100 100 100 100 99 98 97 97 97 98 98 98 98 99 99 100 99 98 98 99 98 98 98
47 46 45 46 48 48 49 51 54 58 63 67 67 68 70 71 72 75 78 80 82 84 85 87 89 90 92 94 94 95 95 94 95 97 97 96 97 99 99 99 99 99 100 100 100 100 100 100 100 100 99 100 100 100 100 100 100 100 100 100 100 100 100 99 98 97 96 96 97 99 99 99 99 99 100 100 100 100 99 99 98 98 97 97 98
45 43 44 45 45 46 48 49 52 57 62 66 67 68 69 70 71 72 76 78 81 83 84 85 87 88 90 92 94 95 96 96 95 97 99 97 96 96 97 98 99 100 99 99 100 100 100 100 100 97 95 96 98 100 99 98 97 98 98 98 97 96 96 95 93 91 94 98 99 99 100 100 99 100 100 100 100 100 100 100 99 99 99 99 100
Wind_Speed
11 16 19 19 18 16 15 16 17 19 20 19 18 18 19 19 19 18 16 16 18 17 14 13 15 18 17 19 24 28 29 29 28 27 28 31 33 34 35 36 37 37 36 36 36 36 36 35 34 33 32 32 34 36 36 36 36 36 34 33 32 31 32 30 26 21 18 16 18 21 22 20 19 23 28 31 32 32 31 30 29 28 29 29 28
9 12 13 17 18 18 19 21 22 23 23 22 20 18 17 17 17 17 17 17 19 20 17 15 14 16 20 22 24 25 27 29 30 29 30 32 34 35 36 37 37 37 36 36 37 38 37 36 35 35 33 32 32 34 36 36 36 36 34 33 33 32 31 30 28 22 16 14 13 11 15 18 19 21 26 31 33 33 32 31 31 30 30 30 29
8 9 13 19 21 23 25 24 24 23 23 23 21 19 18 17 17 16 17 18 20 20 19 18 17 16 20 22 23 23 23 25 27 28 29 30 33 37 38 38 38 38 37 37 37 39 39 37 36 35 34 33 32 32 33 34 35 36 35 34 32 31 30 29 29 27 21 14 8 6 6 8 12 17 23 29 32 33 33 32 32 32 32 31 31
10 9 10 16 20 22 22 22 22 22 22 22 22 22 21 20 20 19 18 19 20 21 21 21 20 19 19 20 21 21 20 23 26 29 30 31 34 37 38 39 38 38 39 38 39 40 40 38 35 33 34 35 33 32 32 33 34 34 34 34 31 28 27 27 28 29 27 17 7 3 2 3 6 9 15 24 28 29 32 33 32 32 32 32 33
10 9 8 11 15 16 18 20 21 21 22 23 23 23 23 22 21 22 22 21 21 22 23 23 22 21 18 16 18 16 14 19 24 26 30 32 35 38 38 38 37 38 39 40 41 41 40 38 34 33 33 35 35 34 33 32 33 33 33 34 33 31 28 26 25 27 30 27 16 6 2 3 6 4 6 15 24 28 30 32 33 33 32 32 33
9 9 8 9 12 14 17 20 20 21 22 22 22 23 23 22 21 21 23 22 23 23 24 25 23 21 18 15 16 13 11 18 25 27 30 34 37 39 40 38 37 38 39 40 41 40 39 38 35 32 31 33 35 35 33 31 32 33 34 34 34 34 30 25 25 27 29 31 29 22 15 9 4 3 4 5 13 24 29 31 32 33 33 33 34
8 8 8 9 12 15 17 19 21 21 21 21 22 23 23 23 22 21 22 23 23 24 25 27 24 21 20 17 18 18 16 21 27 29 31 34 36 37 39 39 39 39 38 40 41 40 39 38 36 33 31 31 32 34 34 33 32 32 33 34 35 35 32 27 27 28 26 28 32 32 28 21 11 5 6 3 3 11 23 30 32 33 32 33 35
9 8 8 9 12 14 15 17 19 19 20 20 22 23 24 24 23 22 22 23 23 24 26 27 26 23 21 20 19 20 20 23 27 28 29 32 33 35 36 37 39 39 38 39 41 41 40 39 38 36 35 34 33 34 35 34 33 32 32 34 34 34 34 33 30 27 26 27 29 31 32 29 21 14 11 11 5 3 10 19 28 32 32 33 35
9 8 7 9 12 14 15 16 16 17 19 20 21 22 23 23 24 23 23 24 24 25 26 27 27 25 22 21 20 21 22 24 26 27 28 30 31 32 32 33 35 37 39 41 41 41 41 40 38 37 38 39 37 35 35 35 34 33 33 33 34 35 36 35 33 30 30 29 27 27 29 29 25 20 17 16 11 7 5 6 14 22 25 32 36
8 7 8 10 13 14 14 14 13 14 17 19 20 21 22 23 24 25 25 26 26 27 27 27 28 26 23 21 21 23 24 24 24 25 26 27 29 30 30 32 34 34 37 40 41 41 41 41 40 39 41 41 39 37 36 35 35 35 35 34 34 35 36 36 35 33 32 31 29 26 25 24 20 17 17 17 14 10 8 5 9 12 14 25 34
7 6 8 10 13 13 12 12 11 12 15 17 18 19 20 22 24 26 27 27 28 29 29 29 29 28 25 22 22 23 25 26 24 23 24 24 26 28 29 31 33 33 35 36 38 39 40 41 42 41 43 42 41 41 39 37 35 36 36 35 36 36 36 36 37 36 32 32 32 31 29 26 22 19 20 20 14 9 7 6 9 13 13 19 28
7 6 6 8 10 10 11 11 10 12 14 16 17 18 19 21 24 26 27 28 29 31 31 31 30 29 27 25 23 23 24 26 25 25 24 23 24 26 28 29 30 31 32 33 36 37 38 40 41 41 42 42 42 42 42 40 37 36 36 36 36 36 37 36 36 36 34 32 33 33 33 31 30 29 26 24 20 16 12 6 8 12 11 17 25
6 6 5 5 6 7 9 9 9 11 13 14 16 17 19 21 23 25 26 28 30 32 32 32 30 29 29 26 25 25 24 25 26 26 27 25 24 26 27 27 29 29 30 32 35 37 36 37 39 41 41 42 42 42 41 41 40 38 36 36 37 37 37 37 37 37 36 35 34 33 34 33 34 34 30 28 26 23 17 10 11 13 9 13 21
6 5 5 4 6 8 10 9 8 10 10 11 14 16 18 21 23 24 26 27 29 31 32 33 32 31 30 29 28 27 26 26 25 26 28 28 26 27 28 28 29 30 31 33 35 37 37 37 38 40 41 42 42 42 41 41 40 39 37 36 37 37 37 37 39 38 37 37 35 34 34 35 36 35 32 32 30 26 21 15 12 12 10 11 14
5 5 5 5 7 10 10 8 8 7 7 9 11 13 16 20 23 24 25 27 29 30 32 33 33 33 32 31 30 29 27 26 26 26 27 28 28 28 29 29 29 31 32 33 36 37 38 39 39 39 41 42 41 41 41 40 39 38 38 37 37 37 37 38 39 38 38 38 37 36 35 36 37 36 34 34 34 31 29 24 15 8 8 9 8
5 5 5 5 9 12 10 8 6 5 6 7 8 11 14 18 21 23 25 26 28 30 32 33 33 33 33 32 30 29 27 26 26 27 26 27 28 30 31 31 30 31 31 32 34 35 36 38 39 39 40 42 42 41 40 39 38 38 38 37 37 36 36 38 38 38 38 38 37 37 37 37 38 37 36 36 36 35 33 30 24 15 9 7 6
5 5 5 6 10 12 10 8 6 5 5 5 7 10 13 16 19 22 25 27 29 31 33 33 32 32 32 31 30 28 27 28 28 27 26 26 27 29 31 31 31 31 31 32 33 34 35 36 38 38 39 41 41 40 38 38 38 38 37 36 36 37 37 37 38 37 37 36 36 37 38 39 39 37 37 37 36 35 34 32 31 27 19 10 6
5 5 5 6 10 12 10 9 7 5 4 5 6 9 12 13 17 20 24 27 30 32 32 32 31 30 30 30 30 29 28 28 27 26 26 26 27 27 28 30 31 31 31 31 32 33 34 36 37 38 38 39 40 39 38 37 37 38 38 39 38 37 36 36 36 36 36 35 36 37 38 39 40 37 38 38 36 35 34 33 33 32 28 19 11
4 5 4 6 10 12 11 10 7 5 4 4 6 9 11 13 17 20 23 27 30 32 32 31 30 28 28 28 29 29 27 26 26 27 28 27 27 27 27 28 30 31 32 32 32 33 34 35 36 37 37 37 38 39 38 37 37 39 41 41 40 36 34 35 35 35 36 36 36 37 38 39 39 38 38 37 36 36 35 34 33 32 31 29 23
4 5 4 5 10 11 10 10 8 6 5 4 6 9 12 14 19 21 23 27 30 32 32 31 29 27 27 27 28 28 27 27 28 29 29 29 28 28 27 28 29 31 33 32 32 33 33 34 35 36 37 37 37 37 37 37 37 40 42 42 40 37 35 37 38 38 37 37 37 38 39 39 38 36 37 37 36 35 35 34 33 33 33 32 30
5 5 5 6 11 11 10 10 8 6 4 5 7 10 13 16 20 22 23 26 30 32 31 31 29 26 25 26 27 28 29 29 29 29 29 31 31 29 28 27 29 31 32 32 32 32 33 34 35 36 36 37 38 38 38 38 37 38 40 40 40 38 36 38 38 38 39 39 38 38 39 40 38 36 37 37 36 35 33 33 33 33 34 33 32
5 5 5 6 9 9 9 10 7 5 4 5 7 10 13 17 20 22 22 26 30 31 30 29 28 26 25 26 28 30 29 28 27 28 29 31 32 31 29 27 28 30 31 32 32 32 32 33 35 36 37 36 37 37 38 39 38 39 39 39 39 38 37 38 37 37 39 39 38 38 39 39 38 37 37 36 36 35 33 32 32 32 34 34 32
5 5 5 6 8 8 9 9 6 4 3 5 7 10 13 16 20 21 22 25 29 31 29 28 27 27 27 27 29 29 28 27 27 29 30 31 32 32 30 27 28 29 30 31 32 32 32 33 34 37 38 37 36 37 38 39 40 40 39 39 40 39 38 39 39 40 40 38 36 37 39 39 36 36 37 36 35 35 33 33 34 34 34 34 33
4 4 4 6 8 9 9 8 6 4 1 4 8 11 13 16 20 21 21 24 28 29 28 26 26 27 28 28 28 28 28 28 28 29 30 31 33 34 31 29 28 29 29 30 31 32 32 33 34 36 38 38 37 36 37 38 40 40 40 41 41 42 42 42 43 44 42 38 37 38 39 38 35 34 36 36 35 35 34 34 35 36 35 35 34
3 3 5 5 6 7 8 8 6 4 1 5 9 12 14 17 20 20 20 24 27 27 26 25 25 25 27 27 27 28 29 29 29 29 30 32 34 34 33 31 30 29 28 28 30 31 31 32 34 36 37 38 37 37 38 39 40 40 41 43 43 43 43 43 44 45 42 39 38 39 39 37 34 35 35 35 35 35 35 35 36 36 36 35 34
2 4 6 4 4 5 7 8 7 4 3 7 11 13 15 18 21 19 19 23 26 26 26 25 24 25 27 28 28 28 28 29 29 29 30 33 35 35 34 32 30 28 27 27 28 29 30 32 34 35 36 37 38 38 39 39 40 41 42 43 43 43 43 43 44 43 41 40 39 39 39 37 35 36 37 36 35 35 35 35 37 37 36 34 32
3 4 5 3 3 4 7 9 7 2 5 8 12 15 17 20 21 19 19 22 24 25 26 26 26 27 28 28 28 28 29 29 28 28 29 31 32 33 33 32 30 27 26 27 27 27 29 31 32 34 35 36 37 38 40 40 41 42 42 42 42 42 42 43 43 43 41 40 40 40 39 38 37 38 39 38 36 35 35 36 38 38 36 34 33
2 4 4 4 5 5 6 7 4 3 6 9 13 16 18 20 20 19 19 21 22 23 25 27 28 29 28 28 28 28 26 25 24 24 25 26 27 28 30 29 27 25 24 25 25 27 28 29 30 32 34 35 36 37 39 40 40 41 41 41 41 41 41 42 43 42 41 39 39 40 39 38 38 39 40 40 38 36 35 36 38 38 35 34 33
3 5 5 6 6 5 5 5 2 4 7 10 13 16 18 20 21 19 19 21 21 21 23 26 28 28 26 26 25 23 22 22 22 22 22 24 25 28 28 26 24 24 23 23 24 26 27 28 29 30 32 33 35 36 37 37 38 39 39 40 40 40 40 40 41 40 40 39 38 37 37 38 39 41 43 43 42 41 39 38 38 37 36 35 34
4 5 5 5 5 4 4 3 2 5 8 11 13 16 19 21 21 18 19 21 20 21 22 24 26 26 25 23 21 20 20 22 23 22 23 24 26 28 28 26 23 22 23 23 24 24 26 27 27 29 30 31 33 35 37 38 38 38 38 38 38 39 39 39 39 38 38 39 38 36 35 36 37 41 43 44 44 44 44 43 42 39 37 35 33
2 3 4 4 3 3 3 1 3 7 9 11 14 17 20 22 21 18 19 21 20 20 21 21 24 26 25 23 21 21 21 22 22 23 23 24 25 27 27 26 25 23 23 23 24 24 25 26 26 27 29 30 31 33 36 38 39 39 40 38 37 37 38 38 38 38 37 37 37 37 36 35 35 37 40 43 44 46 47 49 48 45 42 40 38
2 2 3 4 3 3 1 1 4 7 10 12 15 18 20 22 21 18 19 20 19 19 20 21 24 25 25 24 23 22 23 22 22 23 23 24 25 26 27 28 28 27 26 25 25 24 25 25 26 26 28 30 30 32 36 38 39 40 42 41 38 36 36 37 37 37 38 36 35 36 38 38 38 38 39 41 42 44 47 49 51 50 47 46 44
4 3 4 5 4 2 0 2 5 8 11 14 17 18 21 22 20 18 19 18 18 19 19 21 24 25 24 25 25 24 24 23 23 23 24 25 26 26 28 29 29 29 29 27 25 25 24 25 25 26 29 30 29 30 33 36 40 43 44 43 40 37 37 37 37 37 37 37 36 36 37 38 39 39 40 39 37 37 38 42 45 48 49 50 50
4 4 5 5 3 2 2 4 7 9 12 16 18 19 21 20 17 17 17 16 17 19 19 20 23 24 24 25 25 24 24 24 24 25 25 26 27 27 28 29 30 29 29 27 27 27 25 24 25 26 27 28 28 28 29 32 38 43 45 46 43 40 39 39 39 39 39 38 38 37 35 35 35 36 38 37 34 33 33 34 35 37 40 41 43
3 4 5 4 3 4 3 5 7 10 14 16 18 19 19 17 15 15 16 16 17 19 20 20 21 23 23 24 24 24 23 23 24 25 25 26 27 28 28 29 30 29 27 27 28 28 27 25 26 26 26 26 26 27 27 28 31 36 41 46 46 43 42 41 40 40 40 40 40 38 35 34 34 35 37 38 38 37 35 32 30 32 34 35 36
5 7 6 5 5 4 3 5 7 11 15 16 18 19 16 14 15 15 16 17 17 19 20 21 21 22 22 23 23 23 23 23 23 24 25 26 27 28 29 29 29 29 28 28 29 29 28 27 27 26 26 27 27 26 26 27 29 30 34 41 44 43 41 41 40 38 38 39 39 39 37 35 35 37 39 41 42 41 37 33 31 32 35 37 39
8 10 9 7 6 4 5 6 9 12 14 15 17 16 13 14 17 17 17 18 18 20 22 22 21 22 22 22 22 22 22 23 23 23 24 24 25 27 28 27 27 29 30 29 30 31 30 29 28 27 26 27 28 27 26 27 29 30 31 36 41 38 31 31 34 36 37 37 37 38 39 38 38 39 40 41 42 41 37 33 32 32 32 32 31
12 11 9 7 5 5 6 7 11 13 13 15 16 14 13 16 18 19 20 20 20 22 23 22 21 21 21 21 21 21 22 22 22 23 23 23 23 24 24 24 25 27 29 29 30 31 31 30 28 27 27 28 29 29 27 26 28 30 30 34 39 35 29 29 32 32 31 32 33 36 38 38 37 38 40 42 43 40 35 34 34 31 27 26 26
13 11 9 7 5 6 6 9 12 13 13 15 14 12 14 17 18 20 21 21 21 23 24 22 21 21 20 20 20 20 21 21 22 23 23 22 22 21 21 23 24 26 28 29 29 29 31 31 29 29 29 28 29 30 28 28 30 31 31 33 34 30 28 31 31 28 28 30 32 34 36 38 38 38 40 42 42 41 38 37 37 31 25 25 28
11 11 8 6 5 6 8 11 12 12 14 14 12 13 15 17 18 19 20 20 22 23 23 21 21 20 20 19 18 19 20 22 24 24 23 22 22 22 22 24 26 26 26 26 27 27 29 30 29 28 28 27 27 29 29 29 29 29 30 33 32 27 25 26 26 26 27 27 29 31 33 36 39 40 41 41 40 41 40 39 37 31 27 29 33
12 10 7 6 5 7 10 10 10 13 14 12 11 14 16 17 17 18 19 20 22 22 21 21 21 21 20 18 17 19 21 21 25 27 23 21 21 21 22 23 23 23 22 23 25 26 27 28 26 26 27 27 25 27 30 30 28 27 29 31 31 30 29 27 25 24 24 25 28 31 32 35 38 40 41 40 39 40 41 39 36 32 32 33 34
10 8 6 5 6 8 10 9 10 12 11 10 12 15 16 16 17 18 20 20 21 22 21 21 21 21 21 19 19 23 23 20 23 28 25 21 21 21 20 20 21 21 20 20 22 23 24 25 25 24 25 26 26 26 28 29 28 26 26 29 30 30 29 27 23 22 24 27 29 30 30 32 35 37 40 39 38 39 39 38 37 36 33 31 30
10 6 4 5 7 9 9 9 11 12 9 10 14 16 16 16 16 18 19 20 20 22 21 21 21 21 22 21 21 24 25 21 21 26 25 21 22 22 20 20 21 21 19 19 19 20 21 22 24 25 25 25 25 25 23 25 27 26 24 24 25 27 27 27 24 22 24 27 28 28 27 28 29 30 33 36 37 37 35 33 33 31 28 27 27
8 5 3 6 8 8 7 9 11 10 9 10 14 16 15 15 16 17 18 19 20 21 20 20 21 21 23 22 21 22 25 22 21 23 23 22 22 21 20 21 21 20 18 18 17 18 18 18 19 23 25 22 15 12 12 14 19 23 23 21 21 22 25 27 27 26 26 25 24 23 22 22 22 24 27 32 36 36 35 33 31 28 26 27 27
8 5 5 7 8 7 8 10 10 9 8 10 13 15 14 14 16 17 17 17 18 19 19 20 21 21 22 23 21 21 23 22 21 21 20 21 23 22 21 21 21 21 19 17 16 16 16 16 16 19 23 19 11 5 3 2 3 9 16 19 19 20 23 26 27 25 23 22 21 20 18 16 15 16 17 19 21 22 22 22 23 23 24 25 26
8 7 8 8 7 7 8 9 8 7 8 9 12 13 13 13 15 15 14 14 16 17 18 19 21 21 21 22 22 22 22 22 22 20 18 19 22 23 21 21 21 22 20 18 17 15 14 14 14 17 19 18 16 14 10 6 4 2 3 9 14 17 20 24 23 18 13 12 11 9 7 4 4 4 6 7 5 4 6 6 7 9 11 12 13
10 9 9 8 7 7 7 7 7 7 7 8 10 12 12 13 15 14 12 13 15 16 16 18 20 20 21 21 21 21 20 21 22 21 19 19 22 24 23 23 24 24 22 21 19 16 14 13 14 16 18 18 20 20 17 13 8 4 2 2 6 10 14 18 18 12 7 8 10 11 11 11 11 11 13 15 15 11 8 7 7 7 6 5 3
11 10 8 8 7 6 6 6 6 6 6 6 9 11 11 12 15 13 11 12 15 16 15 17 18 19 20 20 19 19 19 20 20 20 19 19 21 23 23 24 26 26 25 23 21 18 16 14 15 17 18 19 22 24 22 19 12 4 4 7 8 8 9 11 11 11 12 15 18 19 20 19 19 19 20 21 22 22 21 20 19 19 18 16 14
12 10 8 8 7 5 5 5 5 5 6 5 8 10 11 12 14 13 11 13 14 15 15 16 17 18 19 19 18 18 18 17 18 19 19 19 20 21 21 23 25 28 28 26 24 22 19 15 17 21 21 20 22 23 21 17 14 10 11 14 17 19 19 20 22 24 25 26 27 27 27 26 25 25 26 26 26 25 25 26 27 26 25 23 21
12 10 9 8 6 4 3 3 4 5 6 5 6 9 10 11 13 12 12 13 14 14 15 16 16 18 19 19 18 18 17 16 17 17 18 18 19 19 21 22 24 27 30 29 27 27 24 20 20 24 25 23 21 20 19 20 22 21 23 25 27 29 30 31 32 32 33 35 34 32 30 28 26 27 26 24 24 25 25 26 27 27 27 26 25
14 11 9 8 5 3 2 2 4 5 6 5 5 7 9 10 11 12 12 13 13 15 16 16 15 17 18 18 18 18 18 17 17 16 17 18 18 19 21 23 24 27 31 33 32 30 30 29 28 27 27 27 25 22 23 28 30 29 32 33 33 34 34 33 34 37 37 35 31 30 29 27 26 27 25 23 23 24 24 24 24 25 26 25 24
Wind_Direction
116 104 100 95 87 76 65 59 57 53 45 37 28 22 23 23 15 7 359 345 336 328 308 281 253 242 237 234 236 234 230 231 236 241 242 240 238 234 232 230 229 227 224 222 224 226 226 227 232 236 238 238 236 234 233 234 236 237 238 238 236 231 229 231 231 237 241 237 238 236 230 228 226 227 228 227 227 229 230 232 235 239 240 241 242
106 95 85 78 72 64 57 50 45 41 39 37 32 23 17 15 8 360 353 343 337 333 323 307 282 259 251 249 245 239 233 228 227 233 238 240 238 235 234 234 232 231 230 227 226 227 227 225 226 230 235 238 237 236 233 232 233 234 235 236 235 232 229 228 228 230 235 231 229 240 244 239 234 232 231 229 229 230 230 230 233 237 241 244 244
78 69 59 57 54 53 51 47 43 39 37 35 30 25 18 12 6 357 349 340 334 329 322 313 303 286 270 263 258 249 235 228 229 232 235 240 242 238 234 234 233 232 233 233 232 232 230 228 226 226 231 235 237 236 233 232 232 234 234 234 233 231 231 230 227 226 229 230 221 228 241 241 245 240 232 229 227 227 229 231 234 236 240 244 244
75 68 61 57 54 51 48 43 41 38 33 28 23 21 19 13 6 359 350 342 337 332 326 316 305 295 285 278 271 256 234 232 236 233 233 237 243 243 237 233 232 231 232 234 236 237 234 232 230 227 228 232 235 236 235 233 232 233 232 231 229 227 229 230 228 226 227 225 209 215 206 197 244 241 231 229 225 225 228 231 235 238 239 241 241
88 83 73 65 62 56 50 44 39 35 28 20 16 16 16 12 6 358 350 344 341 339 337 327 308 292 288 282 272 255 225 231 237 230 229 230 234 239 237 234 232 231 231 232 236 238 237 235 233 232 230 230 232 234 235 235 234 233 232 230 226 225 227 228 227 226 228 228 222 215 184 204 242 224 217 234 229 226 228 230 234 238 240 240 240
95 94 89 78 71 60 51 44 38 32 25 17 11 10 10 7 3 357 350 343 341 340 343 341 321 295 282 270 261 250 214 226 236 231 230 230 231 234 235 234 232 231 230 231 233 235 236 236 235 235 234 231 231 232 235 237 236 234 233 230 227 226 227 228 228 226 228 232 230 229 228 228 240 168 168 248 239 232 232 232 234 238 241 242 241
95 90 85 76 64 56 48 40 35 30 21 14 8 3 0 358 356 353 347 343 342 341 343 346 337 310 287 270 258 254 237 237 246 241 236 235 235 236 236 234 232 231 230 230 232 233 235 237 234 233 234 233 232 233 235 237 238 237 235 232 230 229 228 229 231 228 226 231 232 233 234 235 240 217 196 224 266 242 236 235 237 239 240 242 242
95 84 77 73 64 59 50 41 38 32 22 14 7 359 354 351 348 345 341 340 340 340 341 343 341 328 305 283 267 261 255 252 255 252 246 243 240 239 238 236 233 231 231 232 232 232 233 236 233 229 229 230 230 232 234 237 238 238 237 234 232 230 229 231 234 230 227 230 231 232 234 237 242 245 232 222 212 252 244 237 240 241 240 241 242
99 95 91 84 77 70 58 48 42 33 22 12 4 357 352 351 348 342 338 336 334 335 339 341 340 338 324 299 279 272 267 262 262 260 254 249 245 244 241 239 236 233 232 232 233 233 234 235 232 229 228 227 227 228 231 234 236 237 236 234 232 230 230 232 235 233 230 231 231 232 235 239 244 249 247 233 219 225 246 241 240 240 240 241 241
101 101 100 94 86 76 62 54 46 30 18 9 3 357 353 351 348 343 337 333 330 329 332 335 337 339 335 317 295 284 279 272 267 264 259 250 247 247 245 242 240 236 233 232 233 234 235 235 233 231 230 228 227 227 227 228 230 233 234 233 232 231 230 231 234 236 234 232 232 232 233 235 239 245 244 238 229 227 238 248 241 233 233 240 240
111 108 106 101 93 82 71 67 54 30 20 14 7 359 353 348 345 343 338 333 329 329 329 329 330 333 335 329 313 298 289 279 269 263 262 254 246 246 246 245 243 239 237 236 235 236 236 235 234 232 231 229 228 229 228 227 228 230 231 230 230 230 230 231 233 236 235 234 233 232 233 233 233 236 236 235 231 226 235 251 248 240 238 243 242
125 117 116 108 100 93 87 82 61 36 28 19 7 359 354 349 345 341 338 336 332 330 330 328 326 326 328 329 325 314 302 288 276 267 263 257 250 249 247 247 246 242 241 240 239 238 237 235 234 232 230 229 228 229 229 228 229 230 228 226 227 228 229 230 232 234 234 234 233 232 234 235 235 237 237 236 236 235 235 245 254 247 245 248 247
121 118 120 117 122 119 107 95 69 46 34 19 7 1 354 349 345 339 335 335 333 330 329 327 326 323 322 323 323 320 314 301 287 276 267 260 254 253 251 248 247 246 243 241 241 239 237 236 234 233 231 229 228 228 228 227 227 228 227 225 225 226 227 228 231 234 234 234 234 234 234 235 237 239 238 238 240 241 238 241 251 247 245 254 252
121 126 132 142 154 139 119 103 78 55 36 20 11 2 353 346 343 338 334 332 331 329 327 324 322 321 318 317 316 316 317 312 301 288 276 267 258 255 254 252 250 250 247 245 245 243 240 237 236 235 234 232 230 228 227 226 226 226 226 225 225 226 226 228 231 234 234 235 235 235 235 236 238 239 239 238 239 239 236 236 245 250 252 259 260
129 138 155 167 152 135 121 106 88 64 39 25 15 3 353 346 341 336 333 332 331 327 324 320 318 316 315 313 312 312 313 313 310 302 289 276 266 259 256 254 253 253 252 250 247 245 242 240 238 236 236 234 232 229 227 226 225 225 225 225 225 226 226 227 230 232 233 234 235 236 237 238 239 239 239 239 238 238 238 237 235 241 256 259 264
143 155 177 170 142 132 128 123 111 81 48 29 17 7 357 349 343 337 332 330 329 325 321 317 314 312 312 312 310 309 310 311 311 309 301 289 276 266 260 258 256 255 255 253 249 244 242 241 239 236 235 234 232 229 226 225 225 224 224 224 225 225 225 227 229 231 233 234 234 235 238 240 241 240 240 241 241 240 241 240 235 229 240 256 259
169 178 180 163 145 141 141 140 128 97 58 34 26 16 4 353 345 336 330 327 326 323 319 315 311 308 308 309 309 308 307 308 310 309 307 302 290 275 265 260 258 257 256 255 252 247 242 241 240 237 234 232 231 229 226 224 224 224 224 224 224 225 225 227 228 230 232 233 234 235 237 240 243 242 241 242 243 243 242 241 238 234 233 240 252
178 185 177 161 156 156 155 150 130 99 68 50 36 19 5 356 349 338 328 324 323 321 318 314 310 306 304 306 307 307 306 307 307 307 307 307 301 290 274 264 260 259 257 256 254 251 246 242 240 237 234 232 230 228 225 223 221 222 223 224 225 224 224 226 227 229 232 233 234 235 236 239 242 242 242 242 242 244 244 242 240 237 234 233 238
178 188 181 168 166 167 166 156 133 103 91 74 35 14 4 354 351 343 328 323 322 320 318 315 309 305 302 303 304 305 306 305 304 304 306 305 303 299 288 275 268 263 259 257 255 253 249 245 242 239 237 235 232 228 225 222 220 221 223 224 225 223 222 224 226 227 232 234 234 235 236 238 240 241 242 243 242 242 244 243 241 238 236 235 236
191 193 193 182 176 176 167 151 130 112 106 68 22 9 2 351 349 343 329 324 323 321 318 315 310 306 303 302 303 304 305 304 302 303 304 304 302 301 295 285 275 267 261 257 255 253 251 248 244 241 239 236 233 229 224 222 220 220 222 223 224 221 221 225 226 226 227 230 233 234 235 237 238 238 240 242 241 241 241 241 240 239 237 236 237
206 197 199 188 180 175 156 142 126 112 101 43 16 6 357 350 348 341 328 324 324 322 319 315 311 307 304 303 304 305 305 304 302 302 302 302 302 301 299 291 280 270 263 258 256 255 253 250 245 242 240 236 233 229 225 222 221 222 222 223 225 223 222 225 228 227 224 225 229 232 235 236 236 235 237 238 240 240 239 239 238 238 238 237 235
213 203 201 183 174 165 147 142 130 105 79 28 9 358 352 350 348 338 326 325 325 322 319 314 310 307 304 304 304 304 305 303 302 302 300 298 300 302 303 296 283 274 268 261 257 255 254 251 246 242 240 237 233 230 227 225 224 225 224 224 226 226 225 226 227 229 227 225 226 229 234 235 234 234 235 236 238 238 237 237 237 236 238 238 234
207 202 198 171 161 157 148 144 133 107 68 11 352 348 350 350 347 337 326 326 328 325 320 314 310 306 304 305 303 302 303 303 302 300 296 295 298 302 304 299 287 278 272 266 260 256 254 251 246 243 241 239 235 232 230 226 225 226 224 224 226 226 226 227 227 229 229 227 225 227 232 233 232 232 234 235 236 238 237 236 237 236 237 239 236
206 194 178 161 158 155 151 148 138 122 55 341 337 342 346 346 344 335 326 327 329 327 322 315 310 308 305 304 302 300 300 301 301 298 294 294 297 301 303 300 291 281 274 269 263 258 254 250 246 243 242 240 236 233 231 229 227 226 225 225 227 227 226 226 226 228 229 227 226 227 231 231 230 231 234 235 235 236 237 237 238 238 238 239 239
222 183 169 172 165 155 154 152 147 149 278 324 336 339 340 343 340 332 326 327 329 329 325 317 311 310 307 304 302 299 298 298 298 297 296 296 298 301 302 300 293 282 275 271 266 261 256 251 246 242 241 240 237 234 232 230 228 227 226 227 227 227 227 225 226 227 228 227 226 228 230 230 228 229 232 234 233 234 235 236 238 239 238 239 240
212 166 171 178 154 149 157 160 167 186 294 333 340 337 337 339 334 327 325 327 328 330 329 321 313 310 308 304 302 301 298 297 296 296 298 300 300 300 301 299 292 283 278 274 269 264 258 252 246 241 240 239 238 235 232 231 230 228 226 227 227 227 227 226 226 227 228 228 227 229 231 229 226 228 231 232 233 232 233 235 237 239 238 238 239
209 161 159 145 131 158 169 171 183 220 330 338 339 337 335 333 327 322 325 327 328 330 332 329 320 314 309 304 304 304 301 299 298 299 303 306 305 303 302 298 289 282 279 278 274 268 262 255 248 243 241 240 239 236 233 231 230 228 227 226 226 226 226 226 227 227 228 228 229 230 231 230 227 228 231 232 232 231 232 235 237 238 238 237 238
206 161 156 152 166 192 182 175 195 291 325 331 338 338 334 327 321 319 322 326 328 327 330 332 327 320 313 307 308 310 309 307 306 308 313 315 316 317 314 305 292 283 282 283 280 275 268 261 253 247 244 243 241 238 235 232 230 229 228 227 227 226 225 226 227 228 228 228 230 231 232 232 230 230 232 232 232 231 231 234 236 237 237 236 237
164 160 171 173 180 193 179 179 228 306 321 329 333 332 331 327 321 317 321 327 327 323 325 330 328 321 312 309 313 318 320 319 317 315 319 323 326 327 326 320 305 292 290 291 287 281 273 265 258 252 248 245 243 241 239 236 232 229 229 229 228 227 226 226 226 227 228 229 230 231 232 233 233 233 234 234 233 232 231 233 235 235 234 234 235
155 168 184 179 177 182 174 182 291 325 328 327 325 325 329 327 321 318 322 328 327 320 321 326 326 322 316 312 317 322 323 322 320 320 322 326 329 328 329 332 327 313 304 300 295 287 278 268 260 256 252 247 244 243 242 240 237 233 232 231 230 229 228 227 226 226 227 228 229 231 232 234 235 236 236 236 235 234 234 235 236 235 233 232 233
169 182 185 171 167 176 178 221 336 336 330 325 325 328 330 328 323 319 325 330 326 319 320 324 326 326 324 320 319 322 324 322 322 323 324 325 328 328 328 332 335 331 322 314 305 294 284 275 267 260 256 251 247 246 246 244 241 237 235 233 231 230 229 228 227 226 227 228 229 230 232 234 237 239 239 238 237 236 236 237 238 237 234 232 230
189 185 160 152 157 169 192 320 338 334 330 330 332 333 332 329 325 322 327 330 323 317 320 324 328 329 329 327 325 324 324 323 323 323 323 323 325 326 328 329 331 331 330 326 317 302 290 282 276 269 263 258 253 251 249 247 244 241 238 235 232 230 229 228 228 227 228 228 229 231 232 234 237 240 242 241 240 239 238 238 238 238 237 235 234
205 188 155 159 169 166 136 356 346 338 336 338 339 337 334 331 327 325 330 328 322 322 322 322 327 330 331 330 327 325 324 324 324 324 322 322 323 324 326 327 327 326 326 326 322 314 303 291 281 273 268 265 261 257 252 248 245 243 240 237 234 229 227 228 228 228 229 227 227 228 231 233 234 237 241 243 244 244 244 244 243 242 239 237 236
214 178 161 171 164 104 48 16 358 348 345 346 346 343 338 336 333 332 333 328 323 327 327 323 325 329 331 331 328 325 324 323 325 325 322 321 321 321 322 323 323 323 322 321 320 319 315 305 292 282 273 268 265 263 260 254 248 245 241 238 235 231 228 227 227 227 228 227 226 225 226 230 232 232 236 240 243 244 247 250 254 255 252 246 241
194 158 162 162 121 92 49 17 4 356 352 351 349 344 340 345 347 342 338 331 325 330 332 328 325 325 328 330 329 326 324 322 323 324 322 320 318 318 319 320 319 318 317 315 314 315 315 312 305 295 283 274 267 265 264 260 252 247 241 236 233 231 229 227 226 225 225 226 227 226 224 225 227 229 230 233 236 239 241 243 248 255 258 255 251
164 155 155 137 113 102 54 21 8 1 358 354 348 342 344 356 358 349 340 332 329 333 334 331 330 328 327 328 328 326 325 323 322 321 319 318 317 316 316 317 316 314 312 312 313 312 311 311 310 305 293 281 274 269 266 262 256 250 243 235 230 228 227 226 226 225 225 226 227 227 226 224 225 229 232 234 235 236 236 236 238 243 248 249 249
145 143 139 127 111 81 49 29 12 7 4 355 347 346 356 5 358 348 340 336 336 338 336 333 331 329 328 328 328 328 327 325 322 320 317 314 313 312 312 313 313 311 311 312 311 310 310 308 308 306 297 285 278 272 267 265 260 252 244 235 230 227 225 225 225 226 226 226 226 227 227 226 224 227 233 239 239 235 232 234 238 240 244 246 249
144 140 131 117 83 50 42 24 11 11 7 357 352 355 7 5 355 348 345 342 342 340 338 336 332 331 333 333 332 332 331 327 322 317 313 311 310 309 307 308 309 307 307 309 309 308 307 306 304 303 299 290 283 275 266 262 259 251 242 235 231 228 226 226 228 228 229 230 231 231 229 227 225 227 232 237 237 232 228 230 234 235 234 234 240
139 129 116 96 59 43 36 18 11 10 4 358 360 9 12 3 354 352 351 347 345 342 340 338 336 338 339 338 337 337 334 328 321 314 309 308 307 306 306 305 304 304 304 306 308 307 304 304 303 302 301 294 286 280 271 262 258 252 242 233 228 225 224 225 227 228 228 232 235 236 233 229 229 231 233 235 233 228 223 223 227 225 218 221 233
124 114 101 77 54 36 22 15 10 4 1 3 11 17 12 2 357 357 355 350 346 344 343 342 343 345 344 341 341 340 339 340 338 328 317 310 305 303 305 305 302 302 304 306 308 307 304 303 303 302 302 297 288 282 275 266 260 255 245 233 225 221 221 222 223 222 222 224 229 232 233 232 231 233 235 235 234 229 222 220 221 216 213 227 239
120 115 99 76 57 28 20 16 9 8 10 14 21 19 11 5 2 360 356 352 349 349 350 351 349 347 346 343 343 345 346 351 355 348 335 324 321 316 313 312 310 311 312 311 311 311 307 305 305 303 304 303 295 284 275 269 262 255 248 236 226 220 220 220 221 221 221 222 225 228 231 232 233 234 236 236 235 231 225 223 222 219 221 234 242
128 120 95 70 42 28 29 22 14 21 26 23 23 22 16 11 6 0 356 355 356 357 358 355 351 350 349 347 347 351 351 350 356 358 351 343 344 343 338 335 333 329 324 317 316 317 314 311 312 310 309 309 305 293 279 269 261 253 244 237 230 225 222 219 217 218 221 225 229 230 232 235 236 237 237 237 236 235 231 229 228 227 229 234 237
137 124 91 55 40 40 40 24 19 28 35 26 24 26 24 15 6 0 360 1 4 5 1 355 352 352 353 350 349 355 357 354 355 1 360 354 352 352 351 350 345 338 331 323 320 320 318 319 321 321 322 321 315 302 284 269 263 254 242 234 232 230 227 223 217 215 221 228 233 235 235 238 241 242 243 243 241 241 241 240 237 236 235 236 235
140 124 77 58 61 59 43 25 23 27 32 32 31 31 29 18 6 3 5 8 11 9 2 355 354 353 353 353 352 356 0 360 357 359 3 2 358 354 355 355 350 344 337 329 326 324 322 326 327 329 337 344 332 300 276 267 263 251 237 229 227 226 227 227 223 221 224 227 231 234 236 239 243 244 246 246 244 244 246 250 251 250 246 241 235
143 122 89 78 79 64 35 25 25 27 36 41 36 34 32 20 9 9 12 13 16 13 3 357 355 354 354 354 354 357 2 2 1 0 2 5 4 0 359 358 355 351 345 338 335 333 331 330 328 333 344 356 3 343 301 291 268 237 226 222 217 215 221 224 224 224 225 227 229 232 234 237 237 234 232 235 237 239 242 248 253 251 245 237 233
147 124 102 89 77 50 32 27 26 35 50 49 38 36 34 24 18 19 19 20 22 17 8 0 357 355 355 356 356 358 1 3 5 5 6 10 11 8 5 4 2 359 355 349 343 340 340 337 334 339 347 355 2 2 5 25 49 66 206 216 212 210 213 217 218 218 217 213 213 212 203 184 161 144 122 116 132 181 202 216 237 244 241 239 240
146 127 111 94 71 47 34 25 22 39 61 57 42 39 36 29 26 26 29 32 29 22 12 6 1 358 357 358 359 358 358 1 5 9 13 17 17 14 10 10 10 5 1 358 353 348 349 350 348 350 357 5 6 3 10 26 32 36 70 138 190 196 203 209 209 205 175 123 106 103 99 97 100 96 86 82 80 79 83 84 70 57 50 42 25
137 128 115 99 84 63 40 23 19 43 72 66 45 40 38 33 28 27 38 44 36 27 19 11 5 2 1 2 2 1 0 1 3 9 16 20 21 19 15 15 16 14 9 5 1 358 356 1 9 9 8 15 14 7 11 25 30 46 112 111 114 133 161 175 167 149 126 107 98 96 91 87 87 83 74 68 65 62 61 62 61 60 59 59 62
138 133 120 106 96 71 48 27 20 51 83 75 49 43 39 33 26 26 43 51 41 32 27 18 9 6 6 7 6 5 5 4 3 9 19 26 30 28 22 21 24 25 22 18 15 14 10 13 28 32 27 24 17 8 13 37 57 80 107 108 102 105 114 118 117 118 113 102 91 82 75 71 69 66 61 56 52 51 52 53 54 56 57 56 56
141 135 124 114 104 80 59 22 16 61 95 89 57 47 38 29 25 29 45 52 45 38 33 25 15 11 9 10 10 9 9 10 9 10 16 25 34 37 35 33 31 31 32 31 30 32 33 35 43 45 43 41 30 18 29 57 74 87 98 100 100 104 107 108 112 110 98 86 78 71 65 62 60 59 55 50 46 45 45 45 46 49 51 51 50
150 143 130 121 117 107 85 20 22 75 105 100 67 52 39 29 27 33 45 53 49 44 39 30 21 16 16 17 16 15 15 16 16 15 15 18 23 30 37 40 39 38 38 37 37 40 44 48 52 52 52 52 44 35 47 63 70 81 91 92 95 100 100 101 106 102 85 72 69 68 63 59 58 57 53 49 46 44 43 41 41 42 43 44 44